Simultaneous Nadir Overpasses (SNOs) Predictions

Prediction of SNOs between GOES-15 and NOAA-20 Satellite Orbit:

Table of predicted SNOs for the next 14.0 days since TLE Epoch: 9/11/2020
Index Date Time (GOES-15) GOES-15 Lat,Lon NOAA-20 Lat,Lon Distance(km) Time Diff (sec)
1 09/11/2020 21:49:15 0.09,-128.09 0.44,-126.56 175.03 80
2 09/13/2020 10:11:02 -0.10,-128.17 0.69,-131.83 416.97 80
3 09/14/2020 09:54:57 -0.10,-128.19 -0.31,-127.30 102.07 80
4 09/16/2020 21:55:27 0.11,-128.20 0.13,-128.06 15.57 80
5 09/19/2020 09:58:28 -0.11,-128.29 -0.00,-128.80 58.70 80
6 09/20/2020 09:42:23 -0.11,-128.30 -1.01,-124.27 459.80 80
7 09/21/2020 22:04:18 0.11,-128.29 -0.18,-129.57 146.31 80
8 09/22/2020 21:42:53 0.11,-128.30 0.83,-125.03 371.55 80
9 09/24/2020 10:04:40 -0.12,-128.35 0.30,-130.31 222.90 80
10 09/25/2020 09:48:35 -0.12,-128.36 -0.71,-125.78 294.84 80
